GW3586 Weather Reports


time (UTC)temp
F
wind
direction
speed
knots
gust
knots
rain 1hr
in
rain 24hr
in
rain mn
in
humidity
%
barometer
mb
20260906072104 72 11 0.0 5.2 0.00 0.19 0.00 91 1009.5
20260906071619 72 345 0.9 5.2 0.00 0.19 0.00 91 1009.5
20260906070919 72 335 2.6 4.3 0.00 0.19 0.00 91 1009.7
20260906070004 72 341 2.6 3.5 0.00 0.19 0.00 90 1009.8
20260906065818 72 347 0.0 3.5 0.00 0.19 0.00 90 1009.8
20260906064904 72 26 0.9 4.3 0.00 0.19 0.00 90 1009.8
20260906064204 72 101 0.9 4.3 0.00 0.19 0.00 90 1009.9
20260906063504 72 159 0.0 3.5 0.00 0.19 0.00 90 1010.0
20260906062803 72 285 0.0 3.5 0.00 0.19 0.00 91 1010.0
20260906062103 72 290 0.0 4.3 0.00 0.19 0.00 91 1010.1
20260906061404 72 293 0.9 5.2 0.00 0.19 0.00 91 1010.2
20260906060704 73 306 0.0 4.3 0.00 0.19 0.00 90 1010.1
20260906060004 73 326 3.5 4.3 0.00 0.19 0.00 90 1010.2
20260906055817 73 343 1.7 4.3 0.00 0.19 0.00 90 1010.3
20260906054904 73 348 3.5 5.2 0.00 0.19 0.00 90 1010.4
20260906054204 72 297 3.5 7.0 0.00 0.19 0.00 91 1010.4
20260906053504 72 309 0.0 5.2 0.00 0.19 0.00 91 1010.3
20260906053018 72 316 3.5 5.2 0.00 0.19 0.00 91 1010.4
20260906052104 73 21 0.9 5.2 0.00 0.19 0.00 90 1010.4
20260906051618 73 79 1.7 4.3 0.00 0.19 0.00 90 1010.5
20260906050704 73 105 0.9 0.9 0.00 0.19 0.00 91 1010.7
20260906050218 73 106 0.0 0.9 0.00 0.19 0.00 90 1010.6
20260906045604 73 105 0.0 1.7 0.00 0.19 0.00 90 1010.4
20260906044904 73 108 0.0 3.5 0.00 0.19 0.00 90 1010.5
20260906044204 73 26 1.7 5.2 0.00 0.19 0.00 90 1010.5
20260906043504 73 319 3.5 5.2 0.00 0.19 0.00 90 1010.4
20260906043017 73 276 0.0 4.3 0.00 0.19 0.00 90 1010.3
20260906042317 73 220 2.6 3.5 0.00 0.19 0.00 89 1010.3
20260906041404 74 112 0.0 5.2 0.00 0.19 0.00 89 1010.2
20260906040704 74 95 0.0 3.5 0.00 0.19 0.00 87 1010.1
20260906040220 74 342 0.9 4.3 0.00 0.19 0.00 87 1010.1
20260906035604 74 336 0.0 5.2 0.00 0.19 0.19 87 1010.1
20260906034903 74 332 2.6 5.2 0.00 0.19 0.19 87 1010.1
20260906034203 74 333 0.9 6.1 0.00 0.19 0.19 87 1010.1
20260906033504 75 25 3.5 7.0 0.00 0.19 0.19 87 1010.1
20260906032804 75 54 3.5 4.3 0.00 0.19 0.19 86 1010.2
20260906032317 75 56 0.9 5.2 0.00 0.19 0.19 86 1010.3
20260906031403 75 92 0.9 4.3 0.00 0.19 0.19 84 1010.3
20260906030703 76 86 0.9 4.3 0.00 0.19 0.19 84 1010.4
20260906030218 76 93 2.6 3.5 0.00 0.19 0.19 84 1010.4
20260906025603 76 103 0.9 2.6 0.00 0.19 0.19 83 1010.4
20260906024903 76 109 0.9 3.5 0.00 0.19 0.19 82 1010.2
20260906024204 77 90 0.9 5.2 0.00 0.19 0.19 81 1010.2
20260906023503 77 318 0.9 7.0 0.00 0.19 0.19 80 1010.2
20260906022803 77 309 3.5 7.0 0.00 0.19 0.19 80 1010.2
20260906022317 77 320 0.0 5.2 0.00 0.19 0.19 79 1010.0
20260906021403 77 344 2.6 6.1 0.00 0.19 0.19 79 1010.0
20260906020703 77 2 3.5 6.1 0.00 0.19 0.19 79 1010.1
20260906020003 77 28 3.5 4.3 0.00 0.19 0.19 80 1010.1
20260906015603 77 29 0.9 1.7 0.00 0.19 0.19 80 1010.1
20260906015118 77 5 0.9 1.7 0.00 0.19 0.19 80 1010.0
20260906014203 77 27 0.9 1.7 0.00 0.19 0.19 79 1009.9
20260906013504 77 47 0.9 2.6 0.00 0.19 0.19 78 1009.9
20260906012803 77 40 0.9 2.6 0.00 0.19 0.19 78 1009.7
20260906012103 77 28 0.9 1.7 0.00 0.19 0.19 76 1009.5
20260906011617 78 29 0.0 1.7 0.00 0.19 0.19 76 1009.5
20260906010703 78 24 0.9 1.7 0.00 0.19 0.19 75 1009.3
20260906010219 78 13 0.9 1.7 0.00 0.19 0.19 75 1009.3
20260906005603 78 321 1.7 1.7 0.00 0.19 0.19 75 1009.3
20260906004903 78 17 0.0 1.7 0.00 0.19 0.19 74 1009.3
20260906004203 78 18 0.9 1.7 0.00 0.19 0.19 73 1009.3
20260906003503 79 357 0.9 1.7 0.00 0.19 0.19 73 1009.2
20260906002804 79 28 0.0 1.7 0.00 0.19 0.19 74 1009.0
20260906002103 79 23 0.9 1.7 0.00 0.19 0.19 72 1009.1
20260906001404 79 26 0.9 1.7 0.00 0.19 0.19 74 1009.1
20260906000704 80 53 0.9 1.7 0.00 0.19 0.19 73 1009.0
20260906000004 80 28 0.0 1.7 0.00 0.19 0.19 72 1009.0
20260905235819 80 19 0.0 1.7 0.00 0.19 0.19 71 1009.0
20260905234903 81 162 0.0 0.9 0.00 0.19 0.19 70 1008.9
20260905234203 81 143 0.0 1.7 0.00 0.19 0.19 70 1008.8
20260905233717 81 26 0.0 1.7 0.00 0.19 0.19 69 1008.7
20260905232803 82 29 0.0 1.7 0.00 0.19 0.19 68 1008.7
20260905232103 83 37 0.9 1.7 0.00 0.19 0.19 65 1008.6
20260905231403 83 16 0.0 1.7 0.00 0.19 0.19 65 1008.5
20260905230703 84 22 0.9 1.7 0.00 0.19 0.19 63 1008.6
20260905230218 84 12 0.9 1.7 0.00 0.19 0.19 62 1008.6
20260905225816 84 8 0.0 1.7 0.00 0.19 0.19 62 1008.6
20260905224903 84 359 0.9 3.5 0.00 0.19 0.19 61 1008.7
20260905224417 85 354 0.9 3.5 0.00 0.19 0.19 60 1008.6
20260905223503 87 335 0.0 3.5 0.00 0.19 0.19 56 1008.4
20260905222803 86 331 0.9 4.3 0.00 0.19 0.19 57 1008.4
20260905222103 88 286 0.9 3.5 0.00 0.19 0.19 55 1008.3
20260905221403 88 290 2.6 3.5 0.00 0.19 0.19 53 1008.1
20260905220703 88 264 1.7 3.5 0.00 0.19 0.19 53 1008.1
20260905220003 88 247 1.7 3.5 0.00 0.19 0.19 54 1008.1
20260905215603 88 209 0.9 3.5 0.00 0.19 0.19 54 1008.3
20260905214903 88 218 2.6 3.5 0.00 0.19 0.19 52 1008.2
20260905214416 88 254 1.7 3.5 0.00 0.19 0.19 52 1008.3
20260905213503 88 256 1.7 3.5 0.00 0.19 0.19 50 1008.3
20260905212803 88 270 3.5 3.5 0.00 0.19 0.19 50 1008.4
20260905212103 88 256 0.9 3.5 0.00 0.19 0.19 51 1008.5
20260905211403 86 219 0.0 3.5 0.00 0.19 0.19 54 1008.5
20260905210703 86 172 0.0 4.3 0.00 0.19 0.19 56 1008.7
20260905210004 86 217 3.5 4.3 0.00 0.19 0.19 56 1008.6
20260905205603 86 189 2.6 5.2 0.00 0.19 0.19 55 1008.6
20260905205118 85 155 0.9 5.2 0.00 0.19 0.19 59 1008.7
20260905204203 86 235 2.6 3.5 0.00 0.19 0.19 56 1008.6
20260905203718 85 216 0.9 3.5 0.00 0.19 0.19 57 1008.6
20260905202803 85 165 0.9 4.3 0.00 0.19 0.19 60 1008.8
20260905202103 84 155 2.6 5.2 0.00 0.19 0.19 59 1009.0
20260905201403 85 97 1.7 5.2 0.00 0.19 0.19 59 1009.1
20260905200703 85 103 2.6 5.2 0.00 0.19 0.19 58 1009.2
20260905200004 85 172 0.0 5.2 0.00 0.19 0.19 58 1009.2
20260905195603 85 166 0.0 4.3 0.00 0.19 0.19 55 1009.2
20260905195118 84 163 0.9 5.2 0.00 0.19 0.19 57 1009.3
20260905194203 84 131 4.3 4.3 0.00 0.19 0.19 56 1009.5
20260905193503 83 47 2.6 4.3 0.00 0.19 0.19 58 1009.7
20260905192803 82 143 0.9 5.2 0.00 0.19 0.19 63 1010.0
20260905192103 82 106 3.5 5.2 0.00 0.19 0.19 59 1009.9
20260905191403 82 92 1.7 5.2 0.00 0.19 0.19 62 1010.1
20260905190703 81 25 2.6 5.2 0.00 0.19 0.19 66 1010.2
20260905190003 80 18 3.5 5.2 0.00 0.19 0.19 69 1010.3
20260905185817 80 14 1.7 5.2 0.00 0.19 0.19 68 1010.3
20260905184903 80 138 0.0 6.1 0.00 0.19 0.19 71 1010.6
20260905184203 79 118 0.9 6.1 0.00 0.19 0.19 72 1010.7
20260905183503 78 157 1.7 6.1 0.00 0.19 0.19 73 1010.9
20260905183018 78 148 1.7 5.2 0.00 0.19 0.19 77 1011.0
20260905182103 76 126 1.7 3.5 0.00 0.19 0.19 75 1011.3
20260905181403 74 109 3.5 3.5 0.00 0.19 0.19 81 1011.6
20260905180703 73 107 0.9 2.6 0.00 0.19 0.19 88 1012.1
20260905180003 72 107 2.6 3.5 0.00 0.19 0.19 92 1012.2
20260905175603 71 108 0.9 3.5 0.00 0.19 0.19 93 1012.3
20260905174903 70 108 0.9 2.6 0.03 0.19 0.19 94 1012.7
20260905174203 70 105 0.9 1.7 0.08 0.19 0.19 93 1013.0
20260905173503 70 115 0.9 2.6 0.15 0.19 0.19 92 1013.3
20260905172803 70 117 0.0 5.2 0.19 0.19 0.19 92 1013.5
20260905172104 69 113 2.6 6.1 0.19 0.19 0.19 91 1014.0
20260905171618 69 113 2.6 8.7 0.19 0.19 0.19 91 1014.1
20260905170918 69 120 3.5 8.7 0.19 0.19 0.19 91 1014.1
20260905170003 70 111 1.7 4.3 0.19 0.19 0.19 92 1014.3
20260905165603 70 106 1.7 7.0 0.19 0.19 0.19 91 1014.1
20260905164903 70 56 0.9 10.4 0.17 0.17 0.17 89 1013.6
20260905164203 71 22 5.2 15.6 0.12 0.12 0.12 87 1013.3
20260905163717 71 5 3.5 15.6 0.06 0.06 0.07 85 1013.4
20260905162803 74 359 7.0 16.5 0.00 0.00 0.00 79 1013.3
20260905162103 78 351 5.2 22.6 0.00 0.00 0.00 74 1012.8
20260905161403 85 340 7.8 15.6 0.00 0.00 0.00 60 1012.0
20260905160703 87 320 1.7 5.2 0.00 0.00 0.00 61 1011.0
20260905160003 87 306 2.6 5.2 0.00 0.00 0.00 60 1010.9
20260905155603 87 305 0.0 2.6 0.00 0.00 0.00 59 1011.1
20260905154903 87 254 0.0 3.5 0.00 0.00 0.00 61 1011.1
20260905154203 86 286 0.0 4.3 0.00 0.00 0.00 63 1011.2
20260905153503 86 289 2.6 4.3 0.00 0.00 0.00 63 1011.1
20260905152804 85 300 2.6 3.5 0.00 0.00 0.00 64 1011.1
20260905152103 85 275 0.9 5.2 0.00 0.00 0.00 66 1011.2
20260905151617 85 279 0.0 5.2 0.00 0.00 0.00 66 1011.1
20260905150703 84 286 2.6 4.3 0.00 0.00 0.00 68 1011.1
20260905150003 84 281 1.7 4.3 0.00 0.00 0.00 67 1011.1
20260905145818 84 287 0.9 4.3 0.00 0.00 0.00 67 1011.1
20260905145118 83 279 0.9 4.3 0.00 0.00 0.00 69 1011.1
20260905144203 82 268 0.9 4.3 0.00 0.00 0.00 70 1011.2
20260905143503 82 271 1.7 3.5 0.00 0.00 0.00 71 1011.3
20260905142803 81 258 0.9 3.5 0.00 0.00 0.00 72 1011.5
20260905142103 81 225 2.6 3.5 0.00 0.00 0.00 72 1011.5
20260905141403 81 246 0.9 4.3 0.00 0.00 0.00 73 1011.5
20260905140703 80 264 2.6 4.3 0.00 0.00 0.00 74 1011.6
20260905140004 80 266 2.6 3.5 0.00 0.00 0.00 75 1011.6
20260905135603 79 268 1.7 3.5 0.00 0.00 0.00 75 1011.6
20260905134903 79 164 0.0 3.5 0.00 0.00 0.00 77 1011.7
20260905134203 78 196 1.7 3.5 0.00 0.00 0.00 78 1011.9
20260905133503 77 170 0.9 4.3 0.00 0.00 0.00 80 1012.0
20260905132803 77 132 0.9 5.2 0.00 0.00 0.00 81 1012.0
20260905132318 77 139 2.6 5.2 0.00 0.00 0.00 81 1012.1
20260905131403 76 138 3.5 6.1 0.00 0.00 0.00 83 1012.3
20260905130703 76 134 2.6 3.5 0.00 0.00 0.00 85 1012.4
20260905130003 75 130 1.7 3.5 0.00 0.00 0.00 85 1012.5
20260905125603 75 129 1.7 2.6 0.00 0.00 0.00 86 1012.6
20260905124903 74 129 1.7 3.5 0.00 0.00 0.00 87 1012.8
20260905124203 74 139 0.9 2.6 0.00 0.00 0.00 89 1012.8
20260905123503 73 251 0.0 3.5 0.00 0.00 0.00 89 1012.8
20260905123017 73 3 0.0 4.3 0.00 0.00 0.00 89 1012.7
20260905122103 73 349 2.6 5.2 0.00 0.00 0.00 90 1012.8
20260905121403 72 351 2.6 5.2 0.00 0.00 0.00 91 1012.8
20260905120703 72 345 0.0 4.3 0.00 0.00 0.00 92 1012.7
20260905120003 71 356 1.7 6.1 0.00 0.00 0.00 93 1012.7
20260905115819 71 347 1.7 6.1 0.00 0.00 0.00 93 1012.7
20260905114903 71 304 2.6 6.1 0.00 0.00 0.00 93 1012.5
20260905114417 71 310 0.0 6.1 0.00 0.00 0.00 93 1012.5
20260905113503 71 283 2.6 4.3 0.00 0.00 0.00 93 1012.2
20260905113017 71 149 0.9 2.6 0.00 0.00 0.00 93 1012.3
20260905112103 71 113 0.9 4.3 0.00 0.00 0.00 92 1012.2
20260905111403 71 79 0.9 5.2 0.00 0.00 0.00 92 1012.2
20260905110703 72 76 0.0 5.2 0.00 0.00 0.00 91 1012.1
20260905110218 72 16 1.7 5.2 0.00 0.00 0.00 91 1012.0
20260905105818 72 19 1.7 5.2 0.00 0.00 0.00 91 1012.0
20260905105118 72 42 1.7 5.2 0.00 0.00 0.00 91 1011.8
20260905104203 72 125 1.7 3.5 0.00 0.00 0.00 90 1011.7
20260905103503 72 9 0.9 3.5 0.00 0.00 0.00 90 1011.5
20260905102803 73 124 3.5 3.5 0.00 0.00 0.00 90 1011.7
20260905102103 73 198 0.9 4.3 0.00 0.00 0.00 88 1011.5
20260905101403 73 332 0.0 4.3 0.00 0.00 0.00 88 1011.5
20260905100917 73 336 0.0 4.3 0.00 0.00 0.00 88 1011.4
20260905100003 73 339 0.9 5.2 0.00 0.00 0.00 89 1011.5
20260905095603 73 350 1.7 5.2 0.00 0.00 0.00 89 1011.5
20260905094903 72 349 1.7 4.3 0.00 0.00 0.00 90 1011.4
20260905094203 72 352 2.6 3.5 0.00 0.00 0.00 90 1011.3
20260905093503 72 320 3.5 3.5 0.00 0.00 0.00 90 1011.3
20260905092803 72 310 0.0 3.5 0.00 0.00 0.00 90 1011.2
20260905092103 72 302 0.9 3.5 0.00 0.00 0.00 90 1011.2
20260905091403 72 242 0.9 2.6 0.00 0.00 0.00 90 1011.1
20260905090703 72 190 1.7 3.5 0.00 0.00 0.00 90 1011.2
20260905090003 72 333 0.0 3.5 0.00 0.00 0.00 90 1011.2
20260905085603 72 328 2.6 3.5 0.00 0.00 0.00 90 1011.3
20260905084903 72 295 0.0 3.5 0.00 0.00 0.00 90 1011.3
20260905084203 73 293 0.0 3.5 0.00 0.00 0.00 90 1011.3
20260905083503 73 297 1.7 3.5 0.00 0.00 0.00 89 1011.3
20260905083018 73 353 0.0 3.5 0.00 0.00 0.00 88 1011.4
20260905082103 73 350 1.7 4.3 0.00 0.00 0.00 88 1011.4
20260905081616 73 250 0.0 2.6 0.00 0.00 0.00 88 1011.4
20260905080703 73 296 1.7 2.6 0.00 0.00 0.00 87 1011.5
20260905080003 74 352 0.0 3.5 0.00 0.00 0.00 86 1011.5
20260905075603 74 354 0.0 3.5 0.00 0.00 0.00 86 1011.6
20260905075117 74 26 2.6 5.2 0.00 0.00 0.00 86 1011.6
20260905074203 74 82 0.0 5.2 0.00 0.00 0.00 86 1011.7
20260905073503 74 83 1.7 4.3 0.00 0.00 0.00 85 1011.6
20260905072803 74 86 3.5 4.3 0.00 0.00 0.00 85 1011.8